Epoch 1998 Sept. 24.0 TT = JDT 2451080.5
T 1998 Oct. 6.40329 TT MPCW
q 1.8817936 (2000.0) P Q
n 0.11454870 Peri. 30.10115 +0.97063881 -0.22118702
a 4.1989683 Node 341.92871 +0.10961801 +0.75656404
e 0.5518438 Incl. 17.74315 +0.21411258 +0.61537562
P 8.60
From 250 observations 1998 Aug. 27-2015 Oct. 4, mean residual 0".9.
Finding Charts
Magnitudes Graph
m1 = 5.0 + 5 log d + 40.0 log r
The orbital elements are published on M.P.E.C. 2015-T06.
The charts are made with StellaNavigator Ver.2.0 for Windows
(AstroArts / ASCII).
The magnitudes graphs are made with Comet for Windows.
Copyright(C) Seiichi Yoshida (comet@aerith.net). All rights reserved.